Weather History for New Castle, PA

Change the Weather History Date:

Thursday, September 6, 2012

  Actual Average Record
Temperature  
Mean Temperature 74 °F -  
Max Temperature 88 °F 78 °F 97 °F (1954)
Min Temperature 61 °F 53 °F 36 °F (1962)
Cooling Degree Days 10    
Growing Degree Days 24 (Base 50)    
Moisture  
Dew Point 65 °F    
Average Humidity 91    
Maximum Humidity 100    
Minimum Humidity 48    
Precipitation  
Precipitation 0.00 in - - ()
Sea Level Pressure  
Sea Level Pressure 29.92 in    
Wind  
Wind Speed 1 mph (WSW)    
Max Wind Speed 9 mph    
Max Gust Speed -    
Visibility 5 miles    
Events Fog    
Averages and records for this station are not official NWS values.
T = Trace of Precipitation, MM = Missing Value Source: NWS Daily Summary

Daily Weather History Graph

Daily Weather History Graph

Search for Another Location

Airport:

Trip Planner

Search our weather history database for the weather conditions in past years. The results will help you decide how hot, cold, wet, or windy it might be!

Date:

Astronomy

Sep. 06, 2012 Rise Set
Actual Time 6:53 AM EDT 7:45 PM EDT
Civil Twilight 6:25 AM EDT 8:13 PM EDT
Nautical Twilight 5:52 AM EDT 8:46 PM EDT
Astronomical Twilight 5:18 AM EDT 9:20 PM EDT
Moon 10:51 PM EDT (9/6) 12:55 PM EDT (9/6)
Length of Visible Light 13h 47m
Length of Day
12h 51m
Waning Gibbous, 67% of the Moon is Illuminated
Sep 6
Waning Gibbous
Sep 8
Last Quarter
Sep 15
New
Sep 22
First Quarter
Sep 29
Full

Hourly Weather History & Observations

Time (EDT) Temp. Heat Index Dew Point Humidity Pressure Visibility Wind Dir Wind Speed Gust Speed Precip Events Conditions
12:13 AM 66.2 °F - 66.2 °F 100% 29.88 in 4.0 mi Calm Calm - N/A   Clear
12:56 AM 66.9 °F - 66.9 °F 100% 29.92 in 7.0 mi Calm Calm - N/A   Clear
1:00 AM 66.2 °F - 66.2 °F 100% 29.89 in 1.8 mi Calm Calm - N/A   Clear
1:02 AM 66.2 °F - 66.2 °F 100% 29.89 in 1.0 mi Calm Calm - N/A   Clear
1:06 AM 66.2 °F - 66.2 °F 100% 29.89 in 0.5 mi Calm Calm - N/A Fog Fog
1:13 AM 66.2 °F - 66.2 °F 100% 29.89 in 1.0 mi Calm Calm - N/A   Clear
1:17 AM 66.2 °F - 66.2 °F 100% 29.89 in 2.5 mi Calm Calm - N/A   Clear
1:24 AM 66.2 °F - 66.2 °F 100% 29.89 in 8.0 mi Calm Calm - N/A   Clear
1:56 AM 66.9 °F - 65.8 °F 96% 29.91 in 3.0 mi Calm Calm - N/A   Clear
2:03 AM 66.2 °F - 66.2 °F 100% 29.89 in 1.8 mi Calm Calm - N/A   Clear
2:05 AM 66.2 °F - 66.2 °F 100% 29.89 in 1.0 mi Calm Calm - N/A   Clear
2:09 AM 66.2 °F - 66.2 °F 100% 29.89 in 0.5 mi Calm Calm - N/A Fog Fog
2:17 AM 66.2 °F - 66.2 °F 100% 29.89 in 1.0 mi Calm Calm - N/A   Clear
2:20 AM 66.2 °F - 66.2 °F 100% 29.90 in 2.5 mi Calm Calm - N/A   Clear
2:27 AM 66.2 °F - 66.2 °F 100% 29.90 in 8.0 mi Calm Calm - N/A   Clear
2:56 AM 66.9 °F - 65.8 °F 96% 29.92 in 8.0 mi Calm Calm - N/A   Partly Cloudy
3:56 AM 64.9 °F - 64.9 °F 100% 29.92 in 8.0 mi Calm Calm - N/A   Clear
4:56 AM 63.9 °F - 63.9 °F 100% 29.91 in 5.0 mi Calm Calm - N/A   Clear
5:07 AM 64.4 °F - 64.4 °F 100% 29.89 in 1.8 mi Calm Calm - N/A   Clear
5:11 AM 64.4 °F - 64.4 °F 100% 29.89 in 1.0 mi Calm Calm - N/A   Clear
5:15 AM 64.4 °F - 64.4 °F 100% 29.89 in 1.5 mi Calm Calm - N/A   Clear
5:20 AM 64.4 °F - 64.4 °F 100% 29.89 in 3.0 mi Calm Calm - N/A   Clear
5:35 AM 64.4 °F - 64.4 °F 100% 29.90 in 1.8 mi Calm Calm - N/A   Clear
5:43 AM 64.4 °F - 64.4 °F 100% 29.90 in 3.0 mi Calm Calm - N/A   Clear
5:56 AM 63.0 °F - 63.0 °F 100% 29.92 in 2.0 mi Calm Calm - N/A   Clear
6:21 AM 62.6 °F - 62.6 °F 100% 29.90 in 1.2 mi Calm Calm - N/A   Clear
6:24 AM 62.6 °F - 62.6 °F 100% 29.90 in 0.8 mi Calm Calm - N/A   Clear
6:56 AM 61.9 °F - 61.9 °F 100% 29.95 in 0.2 mi Calm Calm - N/A Fog Fog
7:17 AM 62.6 °F - 62.6 °F 100% 29.92 in 1.0 mi Calm Calm - N/A   Clear
7:19 AM 62.6 °F - 62.6 °F 100% 29.92 in 1.5 mi Calm Calm - N/A   Clear
7:28 AM 62.6 °F - 62.6 °F 100% 29.92 in 1.0 mi Calm Calm - N/A   Clear
7:38 AM 64.4 °F - 64.4 °F 100% 29.93 in 1.8 mi Calm Calm - N/A   Clear
7:40 AM 64.4 °F - 64.4 °F 100% 29.93 in 3.0 mi Calm Calm - N/A   Clear
7:56 AM 63.9 °F - 63.9 °F 100% 29.96 in 4.0 mi Calm Calm - N/A   Clear
8:07 AM 64.4 °F - 64.4 °F 100% 29.93 in 1.5 mi Calm Calm - N/A   Clear
8:09 AM 64.4 °F - 64.4 °F 100% 29.93 in 1.0 mi Calm Calm - N/A   Clear
8:11 AM 64.4 °F - 64.4 °F 100% 29.94 in 0.5 mi Calm Calm - N/A Fog Fog
8:24 AM 66.2 °F - 66.2 °F 100% 29.94 in 0.8 mi Calm Calm - N/A   Mist
8:31 AM 66.2 °F - 66.2 °F 100% 29.94 in 1.2 mi Calm Calm - N/A   Mostly Cloudy
8:33 AM 66.2 °F - 66.2 °F 100% 29.94 in 2.0 mi Calm Calm - N/A   Partly Cloudy
8:42 AM 68.0 °F - 66.2 °F 94% 29.93 in 8.0 mi Calm Calm - N/A   Partly Cloudy
8:56 AM 70.9 °F - 68.0 °F 91% 29.96 in 10.0 mi Calm Calm - N/A   Clear
9:56 AM 73.9 °F - 68.9 °F 84% 29.97 in 10.0 mi Calm Calm - N/A   Clear
10:56 AM 79.0 °F - 68.9 °F 71% 29.96 in 10.0 mi Variable 3.5 mph - N/A   Clear
11:56 AM 81.9 °F 84.8 °F 68.0 °F 63% 29.96 in 10.0 mi WNW 3.5 mph - N/A   Clear
12:56 PM 84.9 °F 87.6 °F 66.9 °F 55% 29.96 in 10.0 mi WSW 9.2 mph - N/A   Clear
1:56 PM 86.0 °F 88.2 °F 65.8 °F 51% 29.94 in 10.0 mi Variable 6.9 mph - N/A   Clear
2:56 PM 86.9 °F 88.6 °F 64.9 °F 48% 29.93 in 10.0 mi SW 9.2 mph - N/A   Clear
3:56 PM 88.0 °F 90.3 °F 65.8 °F 48% 29.92 in 10.0 mi WSW 8.1 mph - N/A   Clear
4:56 PM 86.9 °F 88.9 °F 65.8 °F 49% 29.91 in 10.0 mi WSW 6.9 mph - N/A   Clear
5:56 PM 86.0 °F 88.2 °F 65.8 °F 51% 29.91 in 10.0 mi WSW 5.8 mph - N/A   Clear
6:56 PM 82.9 °F 85.4 °F 66.9 °F 58% 29.92 in 10.0 mi West 4.6 mph - N/A   Clear
7:56 PM 75.9 °F - 65.8 °F 71% 29.94 in 10.0 mi NNE 9.2 mph - N/A   Scattered Clouds
8:56 PM 73.9 °F - 64.9 °F 73% 29.96 in 10.0 mi Calm Calm - N/A   Partly Cloudy
9:56 PM 72.0 °F - 65.8 °F 81% 29.97 in 10.0 mi Calm Calm - 0.00 in   Scattered Clouds
10:56 PM 68.9 °F - 65.8 °F 90% 29.97 in 10.0 mi Calm Calm - N/A   Partly Cloudy